Simultaneous Nadir Overpasses (SNOs) Predictions

Prediction of SNOs between GOES-16 and METOP-C Satellite Orbit:

Table of predicted SNOs for the next 14.0 days since TLE Epoch: 5/9/2020
Index Date Time (GOES-16) GOES-16 Lat,Lon METOP-C Lat,Lon Distance(km) Time Diff (sec)
1 05/10/2020 14:36:27 0.03, -75.21 0.35, -76.51 147.85 80
2 05/11/2020 14:18:29 0.03, -75.22 -0.81, -71.52 421.75 80
3 05/13/2020 02:37:30 -0.02, -75.20 -0.23, -76.12 104.85 80
4 05/14/2020 02:14:11 -0.02, -75.21 0.87, -71.12 465.18 80
5 05/15/2020 14:33:02 0.02, -75.26 0.13, -75.68 48.85 80
6 05/18/2020 02:34:05 -0.02, -75.27 -0.01, -75.30 3.57 80
7 05/20/2020 14:32:16 0.01, -75.35 -0.09, -74.86 55.00 80
8 05/22/2020 02:51:18 -0.01, -75.35 -0.94, -79.46 469.10 80
9 05/23/2020 02:27:59 -0.01, -75.37 0.22, -74.48 102.15 80




NCC Satellite Simultaneous Nadir Overpasses (SNOs) Prediction Service
